Orbital Elements at Epoch 2459000.5 (2020-May-31.0) TDB
Reference: JPL 24 (heliocentric ecliptic J2000)
Element | Value | Uncertainty (1-sigma) | Units |
e | .08623487455930523 | 4.3231e-08 | |
a | 2.231290705539036 | 7.2898e-09 | au |
q | 2.038875631441533 | 9.7947e-08 | au |
i | 6.365026622265861 | 4.2973e-06 | deg |
node | 37.04533546653024 | 2.847e-05 | deg |
peri | 174.1478592336607 | 3.4132e-05 | deg |
M | 338.8907848669676 | 1.85e-05 | deg |
tp | 2459071.884224641033 (2020-Aug-10.38422464) | 6.2552e-05 | TDB |
period | 1217.398217262863 3.33 | 5.966e-06 1.633e-08 | d yr |
n | .2957126065203266 | 1.4492e-09 | deg/d |
Q | 2.423705779636538 | 7.9185e-09 | au |
|
| | Orbit Determination Parameters
Additional Information
|